AD8HP Weather Reports


Display with metric or nautical units.
time (UTC)temp
F
wind
direction
speed
MPH
gust
MPH
rain 1hr
in
rain 24hr
in
rain mn
in
humidity
%
barometer
mb
20260503021526 37 260 0.0 0.0 0.00 0.00 0.00 65 1017.3
20260503021009 38 260 0.0 0.0 0.00 0.00 0.00 65 1017.3
20260503020509 38 260 0.0 0.0 0.00 0.00 0.00 64 1017.3
20260503020028 38 260 0.0 0.0 0.00 0.00 0.00 63 1017.4
20260503015507 38 260 0.0 0.0 0.00 0.00 0.00 61 1017.3
20260503015005 39 260 0.0 0.0 0.00 0.00 0.00 61 1017.3
20260503014522 39 260 0.0 0.0 0.00 0.00 0.00 59 1017.2
20260503014008 39 260 0.0 0.0 0.00 0.00 0.00 59 1017.2
20260503013513 40 260 0.0 0.0 0.00 0.00 0.00 58 1017.2
20260503013033 40 260 0.0 0.0 0.00 0.00 0.00 57 1017.1
20260503012510 40 260 0.0 0.0 0.00 0.00 0.00 56 1017.0
20260503012014 41 260 0.0 1.0 0.00 0.00 0.00 53 1016.9
20260503011529 41 260 0.0 1.0 0.00 0.00 0.00 53 1017.0
20260503011011 42 260 0.0 1.0 0.00 0.00 0.00 52 1017.0
20260503010510 42 260 0.0 1.0 0.00 0.00 0.00 50 1017.0
20260503010028 43 260 0.0 1.0 0.00 0.00 0.00 48 1016.9
20260503005509 43 260 0.0 3.0 0.00 0.00 0.00 47 1016.9
20260503005006 44 260 0.0 3.0 0.00 0.00 0.00 46 1016.9
20260503004526 44 298 1.0 4.0 0.00 0.00 0.00 45 1017.0
20260503004009 44 245 2.0 4.0 0.00 0.00 0.00 44 1017.0
20260503003507 45 276 2.0 6.0 0.00 0.00 0.00 44 1017.0
20260503003025 45 257 2.0 6.0 0.00 0.00 0.00 44 1016.9
20260503002510 45 280 2.0 8.0 0.00 0.00 0.00 43 1016.9
20260503002012 46 292 3.0 9.0 0.00 0.00 0.00 42 1016.9
20260503001526 46 290 4.0 9.0 0.00 0.00 0.00 41 1016.9
20260503001014 46 279 2.0 7.0 0.00 0.00 0.00 42 1016.9
20260503000509 47 274 3.0 8.0 0.00 0.00 0.00 42 1016.8
20260503000036 47 279 4.0 9.0 0.00 0.00 0.00 42 1016.8
20260502235507 47 300 3.0 12.0 0.00 0.00 0.00 41 1016.8
20260502235006 47 285 6.0 12.0 0.00 0.00 0.00 41 1016.9
20260502234522 47 295 8.0 12.0 0.00 0.00 0.00 41 1016.9
20260502234009 48 264 2.0 11.0 0.00 0.00 0.00 41 1016.8
20260502233507 48 248 5.0 11.0 0.00 0.00 0.00 41 1016.8
20260502233026 48 276 5.0 13.0 0.00 0.00 0.00 41 1016.9
20260502232509 48 290 6.0 13.0 0.00 0.00 0.00 43 1016.9
20260502232011 48 296 7.0 12.0 0.00 0.00 0.00 40 1016.8
20260502231530 48 273 6.0 12.0 0.00 0.00 0.00 41 1016.8
20260502231009 48 223 7.0 15.0 0.00 0.00 0.00 41 1016.8
20260502230511 49 298 9.0 15.0 0.00 0.00 0.00 40 1016.8
20260502230029 49 296 3.0 13.0 0.00 0.00 0.00 41 1016.9
20260502225511 49 310 5.0 13.0 0.00 0.00 0.00 40 1016.8
20260502225010 49 259 7.0 13.0 0.00 0.00 0.00 42 1016.8
20260502224528 49 240 7.0 14.0 0.00 0.00 0.00 41 1016.9
20260502224007 49 312 7.0 15.0 0.00 0.00 0.00 42 1016.9
20260502223511 49 269 9.0 15.0 0.00 0.00 0.00 41 1016.8
20260502223021 48 315 7.0 12.0 0.00 0.00 0.00 41 1016.8
20260502222507 48 296 5.0 11.0 0.00 0.00 0.00 41 1016.9
20260502222012 47 260 6.0 13.0 0.00 0.00 0.00 43 1016.9
20260502221529 48 284 5.0 13.0 0.00 0.00 0.00 42 1017.0
20260502221010 49 228 7.0 12.0 0.00 0.00 0.00 41 1016.9
20260502220512 49 316 5.0 13.0 0.00 0.00 0.00 42 1016.9
20260502220028 49 254 7.0 13.0 0.00 0.00 0.00 42 1016.9
20260502215512 49 270 6.0 15.0 0.00 0.00 0.00 40 1016.9
20260502215005 49 294 9.0 15.0 0.00 0.00 0.00 40 1016.9
20260502214513 48 275 6.0 14.0 0.00 0.00 0.00 41 1016.8
20260502214012 49 244 8.0 13.0 0.00 0.00 0.00 41 1016.8
20260502213508 49 327 2.0 12.0 0.00 0.00 0.00 45 1016.8
20260502213023 48 269 7.0 13.0 0.00 0.00 0.00 42 1016.8
20260502212506 49 269 8.0 14.0 0.00 0.00 0.00 44 1016.8
20260502212009 48 297 6.0 14.0 0.00 0.00 0.00 41 1016.8
20260502211525 49 271 6.0 13.0 0.00 0.00 0.00 41 1016.9
20260502211003 48 217 6.0 13.0 0.00 0.00 0.00 42 1016.9
20260502210501 48 273 5.0 15.0 0.00 0.00 0.00 43 1017.0
20260502210010 49 294 10.0 15.0 0.00 0.00 0.00 43 1017.0
20260502205506 48 322 7.0 13.0 0.00 0.00 0.00 45 1017.0
20260502205007 47 248 5.0 10.0 0.00 0.00 0.00 45 1017.1
20260502204519 47 316 3.0 9.0 0.00 0.00 0.00 45 1017.1
20260502204006 47 229 5.0 10.0 0.00 0.00 0.00 47 1017.2
20260502203506 47 285 4.0 13.0 0.00 0.00 0.00 47 1017.3
20260502203020 47 232 7.0 15.0 0.00 0.00 0.00 46 1017.4
20260502202505 47 282 10.0 15.0 0.00 0.00 0.00 45 1017.4
20260502202013 48 292 8.0 14.0 0.00 0.00 0.00 45 1017.5
20260502201527 47 302 4.0 14.0 0.00 0.00 0.00 49 1017.6
20260502201011 47 267 8.0 14.0 0.00 0.00 0.00 47 1017.6
20260502200512 48 266 5.0 13.0 0.00 0.00 0.00 47 1017.7
20260502200024 48 316 8.0 13.0 0.00 0.00 0.00 49 1017.7
20260502195501 46 327 5.0 13.0 0.00 0.00 0.00 48 1017.7
20260502195003 46 304 6.0 13.0 0.00 0.00 0.00 47 1017.8
20260502194509 47 315 9.0 15.0 0.00 0.00 0.00 46 1017.8
20260502194003 46 266 2.0 15.0 0.00 0.00 0.00 48 1017.8
20260502193507 47 235 7.0 14.0 0.00 0.00 0.00 47 1017.8
20260502193020 47 302 9.0 20.0 0.00 0.00 0.00 44 1017.8
20260502192505 48 315 9.0 20.0 0.00 0.00 0.00 44 1017.8
20260502192009 47 292 5.0 15.0 0.00 0.00 0.00 48 1017.9
20260502191521 46 350 5.0 13.0 0.00 0.00 0.00 47 1017.9
20260502191012 46 317 4.0 13.0 0.00 0.00 0.00 47 1018.1
20260502190513 46 282 8.0 12.0 0.00 0.00 0.00 46 1018.1
20260502190030 46 270 6.0 11.0 0.00 0.00 0.00 48 1018.1
20260502185509 46 287 5.0 11.0 0.00 0.00 0.00 50 1018.2
20260502185010 46 277 6.0 15.0 0.00 0.00 0.00 46 1018.1
20260502184527 46 286 5.0 15.0 0.00 0.00 0.00 46 1018.2
20260502184005 46 231 5.0 13.0 0.00 0.00 0.00 48 1018.2
20260502183506 46 264 5.0 13.0 0.00 0.00 0.00 45 1018.2
20260502183018 46 298 7.0 13.0 0.00 0.00 0.00 48 1018.2
20260502182507 46 323 6.0 13.0 0.00 0.00 0.00 45 1018.3
20260502182006 45 279 5.0 13.0 0.00 0.00 0.00 45 1018.3
20260502181518 46 360 5.0 13.0 0.00 0.00 0.00 45 1018.4
20260502181007 45 328 5.0 13.0 0.00 0.00 0.00 48 1018.4
20260502180507 45 311 6.0 13.0 0.00 0.00 0.00 46 1018.5
20260502170510 44 25 2.0 13.0 0.00 0.00 0.00 50 1018.9
20260502164009 45 333 6.0 10.0 0.00 0.00 0.00 49 1019.2
20260502163506 45 68 2.0 10.0 0.00 0.00 0.00 52 1019.1
20260502163036 44 351 5.0 10.0 0.00 0.00 0.00 52 1019.2
20260502162510 43 346 4.0 11.0 0.00 0.00 0.00 50 1019.2
20260502162010 44 257 5.0 11.0 0.00 0.00 0.00 50 1019.2
20260502161518 43 304 5.0 11.0 0.00 0.00 0.00 50 1019.3
20260502161012 43 282 5.0 11.0 0.00 0.00 0.00 50 1019.4
20260502160506 43 249 1.0 14.0 0.00 0.00 0.00 52 1019.3
20260502152010 42 331 6.0 10.0 0.00 0.00 0.00 56 1019.3
20260502151529 43 331 5.0 13.0 0.00 0.00 0.00 54 1019.2
20260502151011 44 360 2.0 13.0 0.00 0.00 0.00 53 1019.2
20260502150510 44 315 5.0 14.0 0.00 0.00 0.00 58 1019.2
20260502130509 38 267 4.0 13.0 0.00 0.00 0.00 74 1019.2
20260502123504 36 348 3.0 9.0 0.00 0.00 0.00 77 1019.2
20260502123004 36 299 3.0 9.0 0.00 0.00 0.00 77 1019.2
20260502122504 36 346 2.0 9.0 0.00 0.00 0.00 78 1019.1
20260502122007 36 324 4.0 9.0 0.00 0.00 0.00 77 1019.1
20260502121504 35 341 1.0 9.0 0.00 0.00 0.00 79 1019.1
20260502121003 35 329 3.0 9.0 0.00 0.00 0.00 79 1018.9
20260502120505 35 308 3.0 6.0 0.00 0.00 0.00 80 1018.9
20260502115502 33 5 2.0 9.0 0.00 0.00 0.00 81 1018.7
20260502115008 33 297 2.0 8.0 0.00 0.00 0.00 82 1018.7
20260502114516 33 297 4.0 9.0 0.00 0.00 0.00 81 1018.7
20260502114007 32 319 4.0 9.0 0.00 0.00 0.00 82 1018.7
20260502113507 32 300 5.0 9.0 0.00 0.00 0.00 82 1018.6
20260502113004 32 315 4.0 7.0 0.00 0.00 0.00 83 1018.6
20260502112503 32 265 3.0 7.0 0.00 0.00 0.00 83 1018.6
20260502112003 31 304 2.0 7.0 0.00 0.00 0.00 83 1018.6
20260502111504 31 296 2.0 7.0 0.00 0.01 0.00 83 1018.4
20260502111004 31 306 3.0 7.0 0.00 0.01 0.00 84 1018.4
20260502110503 31 309 2.0 7.0 0.00 0.01 0.00 84 1018.4
20260502110013 31 281 2.0 5.0 0.00 0.01 0.00 84 1018.4
20260502105506 31 319 2.0 7.0 0.00 0.01 0.00 84 1018.4
20260502105006 30 322 3.0 7.0 0.00 0.01 0.00 84 1018.4
20260502104515 30 293 2.0 9.0 0.00 0.01 0.00 84 1018.3
20260502104006 30 288 2.0 9.0 0.00 0.01 0.00 84 1018.4
20260502103505 30 284 4.0 9.0 0.00 0.01 0.00 84 1018.3
20260502103022 30 284 1.0 4.0 0.00 0.01 0.00 84 1018.3
20260502102509 30 314 1.0 4.0 0.00 0.01 0.00 84 1018.2
20260502102012 30 315 2.0 4.0 0.00 0.01 0.00 84 1018.2
20260502101503 30 301 1.0 3.0 0.00 0.01 0.00 84 1018.2
20260502101001 30 280 1.0 3.0 0.00 0.01 0.00 83 1018.2
20260502100502 30 295 0.0 3.0 0.00 0.01 0.00 83 1018.3
20260502091520 31 266 1.0 4.0 0.00 0.01 0.00 82 1018.1
20260502091008 31 277 2.0 4.0 0.00 0.01 0.00 82 1018.2
20260502090508 31 300 1.0 4.0 0.00 0.01 0.00 82 1018.0
20260502071516 32 271 2.0 8.0 0.00 0.01 0.00 78 1017.7
20260502071008 32 275 2.0 4.0 0.00 0.01 0.00 77 1017.8
20260502070508 33 277 2.0 7.0 0.00 0.01 0.00 77 1017.7
20260502070022 33 300 3.0 7.0 0.00 0.01 0.00 77 1017.8
20260502065510 33 290 3.0 6.0 0.00 0.02 0.00 77 1017.8
20260502065011 33 269 2.0 8.0 0.00 0.03 0.00 77 1017.8
20260502064531 33 282 3.0 8.0 0.00 0.03 0.00 76 1017.8
20260502064008 33 293 2.0 7.0 0.00 0.04 0.00 77 1017.8
20260502063506 33 298 4.0 7.0 0.00 0.04 0.00 77 1017.8
20260502063029 33 284 3.0 6.0 0.00 0.05 0.00 77 1017.9
20260502062504 33 267 3.0 6.0 0.00 0.05 0.00 77 1018.0
20260502062003 33 289 2.0 4.0 0.00 0.05 0.00 77 1018.0
20260502061511 33 285 2.0 4.0 0.00 0.05 0.00 77 1018.0
20260502061004 33 279 2.0 6.0 0.00 0.06 0.00 77 1018.1
20260502060504 33 286 1.0 6.0 0.00 0.07 0.00 77 1018.1
20260502060016 33 283 1.0 4.0 0.00 0.08 0.00 77 1018.1
20260502055505 33 274 2.0 4.0 0.00 0.09 0.00 76 1018.1
20260502055008 33 288 2.0 4.0 0.00 0.10 0.00 76 1018.1
20260502054524 33 296 2.0 4.0 0.00 0.11 0.00 76 1018.2
20260502054007 33 279 0.0 3.0 0.00 0.12 0.00 76 1018.3
20260502053507 33 263 0.0 4.0 0.00 0.13 0.00 75 1018.2
20260502053028 33 263 1.0 4.0 0.00 0.15 0.00 75 1018.2
20260502052510 33 283 1.0 4.0 0.00 0.15 0.00 75 1018.2
20260502052009 33 271 1.0 4.0 0.00 0.16 0.00 74 1018.3
20260502051533 33 285 2.0 4.0 0.00 0.16 0.00 74 1018.3
20260502051003 33 270 2.0 4.0 0.00 0.17 0.00 74 1018.3
20260502050507 33 262 1.0 4.0 0.00 0.17 0.00 74 1018.2
20260502050030 33 246 1.0 4.0 0.00 0.17 0.00 74 1018.3
20260502045507 33 263 1.0 7.0 0.00 0.17 0.00 73 1018.1
20260502045008 33 283 3.0 7.0 0.00 0.18 0.00 73 1018.1
20260502044526 34 257 1.0 4.0 0.00 0.18 0.00 72 1018.2
20260502044006 34 272 1.0 6.0 0.00 0.18 0.00 72 1018.1
20260502043507 34 285 2.0 6.0 0.00 0.20 0.00 72 1018.1
20260502043022 34 277 2.0 6.0 0.00 0.21 0.00 71 1018.0
20260502042506 34 252 1.0 4.0 0.00 0.23 0.00 71 1018.1
20260502042012 34 253 2.0 4.0 0.00 0.24 0.00 70 1018.1
20260502041530 34 248 1.0 3.0 0.00 0.25 0.00 70 1018.1
20260502041011 34 262 1.0 4.0 0.00 0.26 0.00 69 1018.1
20260502040508 35 259 1.0 4.0 0.00 0.26 0.00 68 1018.1
20260502040028 35 245 2.0 4.0 0.00 0.26 0.00 67 1018.0
20260502035510 35 277 1.0 7.0 0.00 0.26 0.26 67 1017.9
20260502035007 35 291 2.0 7.0 0.00 0.27 0.26 67 1017.9
20260502034520 35 243 3.0 6.0 0.00 0.27 0.26 67 1017.9
20260502034008 35 263 3.0 8.0 0.00 0.27 0.26 67 1017.8
20260502033502 35 237 3.0 8.0 0.00 0.28 0.26 67 1017.7
20260502033006 36 277 3.0 8.0 0.00 0.28 0.26 67 1017.8
20260502032501 36 269 3.0 8.0 0.00 0.28 0.26 68 1017.7
20260502032003 36 294 2.0 6.0 0.00 0.28 0.26 68 1017.7
20260502031507 36 263 2.0 6.0 0.00 0.28 0.26 68 1017.7
20260502031003 36 257 1.0 6.0 0.00 0.28 0.26 67 1017.6
20260502030504 36 284 2.0 6.0 0.00 0.28 0.26 66 1017.5
20260502030023 37 285 2.0 6.0 0.00 0.28 0.26 66 1017.4
20260502025503 37 276 1.0 5.0 0.00 0.29 0.26 65 1017.4
20260502025002 37 301 2.0 9.0 0.00 0.29 0.26 65 1017.4
20260502024513 37 302 2.0 9.0 0.00 0.29 0.26 65 1017.4
20260502024006 38 301 3.0 9.0 0.00 0.29 0.26 65 1017.4
20260502023506 38 273 5.0 13.0 0.00 0.29 0.26 65 1017.4
20260502023019 38 313 4.0 13.0 0.00 0.29 0.26 65 1017.5
20260502022508 38 333 7.0 13.0 0.00 0.29 0.26 65 1017.6
20260502022002 38 296 5.0 10.0 0.00 0.29 0.26 65 1017.5